User: anonymous   Login
Location: Newark
(55.7816°N, 8.2389°E)
Time: 13:16:17
(UTC+00:00)
Language:

RS-15 - Orbit

View from above orbital plane
View from above orbital plane
View from above satellite
View from above satellite

Ground track
Ground track

The orbit data is extracted from the following two-line orbital elements,

1 23439U 94085A   20048.68069402 -.00000051 +00000-0 -23446-3 0  9996
2 23439 064.8159 081.5603 0146409 065.3611 296.2483 11.27568780035406
Epoch (UTC): 17 February 2020 16:20:11
Eccentricity: 0.0146409
inclination: 64.8159°
perigee height: 1899 km
apogee height: 2145 km
right ascension of ascending node: 81.5603°
argument of perigee: 65.3611°
revolutions per day: 11.27568780
mean anomaly at epoch: 296.2483°
orbit number at epoch: 3540

The dashed part of the orbit path shows where the satellite is in the earth's shadow,  

DLR